TimeEST,TemperatureF,Dew PointF,Humidity,Sea Level PressureIn,VisibilityMPH,Wind Direction,Wind SpeedMPH,Gust SpeedMPH,PrecipitationIn,Events,Conditions,WindDirDegrees,DateUTC
12:15 AM,46.4,46.4,100,30.28,7.0,Calm,Calm,-,N/A,,Overcast,0,2013-11-16 05:15:00
12:35 AM,46.4,46.4,100,30.28,2.0,Calm,Calm,-,N/A,,Overcast,0,2013-11-16 05:35:00
12:55 AM,46.4,46.4,100,30.28,1.0,Calm,Calm,-,N/A,,Overcast,0,2013-11-16 05:55:00
1:15 AM,46.4,46.4,100,30.27,1.8,Calm,Calm,-,N/A,,Overcast,0,2013-11-16 06:15:00
1:35 AM,44.6,44.6,100,30.27,0.8,Calm,Calm,-,N/A,,Overcast,0,2013-11-16 06:35:00
1:55 AM,44.6,44.6,100,30.27,0.8,Calm,Calm,-,N/A,,Overcast,0,2013-11-16 06:55:00
2:15 AM,44.6,44.6,100,30.28,0.8,Calm,Calm,-,N/A,,Overcast,0,2013-11-16 07:15:00
2:35 AM,44.6,44.6,100,30.29,1.8,Calm,Calm,-,N/A,,Overcast,0,2013-11-16 07:35:00
2:55 AM,44.6,44.6,100,30.27,2.5,Calm,Calm,-,N/A,,Overcast,0,2013-11-16 07:55:00
3:15 AM,44.6,44.6,100,30.27,2.5,Calm,Calm,-,0.01,,Overcast,0,2013-11-16 08:15:00
3:35 AM,44.6,44.6,100,30.26,3.0,Calm,Calm,-,0.01,,Overcast,0,2013-11-16 08:35:00
3:55 AM,44.6,44.6,100,30.27,1.5,Calm,Calm,-,0.01,,Overcast,0,2013-11-16 08:55:00
4:15 AM,44.6,44.6,100,30.27,1.0,Calm,Calm,-,N/A,,Overcast,0,2013-11-16 09:15:00
4:35 AM,44.6,44.6,100,30.26,3.0,Calm,Calm,-,N/A,,Overcast,0,2013-11-16 09:35:00
4:55 AM,46.4,46.4,100,30.27,3.0,Calm,Calm,-,N/A,,Overcast,0,2013-11-16 09:55:00
5:15 AM,46.4,46.4,100,30.27,2.0,Calm,Calm,-,N/A,,Overcast,0,2013-11-16 10:15:00
5:35 AM,46.4,46.4,100,30.27,2.0,Calm,Calm,-,N/A,,Overcast,0,2013-11-16 10:35:00
5:55 AM,46.4,46.4,100,30.27,2.5,Calm,Calm,-,N/A,,Overcast,0,2013-11-16 10:55:00
6:15 AM,46.4,46.4,100,30.27,2.5,Calm,Calm,-,N/A,,Overcast,0,2013-11-16 11:15:00
6:35 AM,46.4,46.4,100,30.27,2.5,Calm,Calm,-,N/A,,Overcast,0,2013-11-16 11:35:00
6:55 AM,46.4,46.4,100,30.28,3.0,Calm,Calm,-,N/A,,Overcast,0,2013-11-16 11:55:00
7:15 AM,46.4,46.4,100,30.29,1.5,Calm,Calm,-,N/A,,Overcast,0,2013-11-16 12:15:00
7:35 AM,46.4,46.4,100,30.29,1.2,Calm,Calm,-,N/A,,Overcast,0,2013-11-16 12:35:00
7:55 AM,46.4,46.4,100,30.30,2.5,Calm,Calm,-,N/A,,Overcast,0,2013-11-16 12:55:00
8:15 AM,46.4,46.4,100,30.30,2.5,Calm,Calm,-,N/A,,Overcast,0,2013-11-16 13:15:00
8:35 AM,46.4,46.4,100,30.31,3.0,Calm,Calm,-,N/A,,Overcast,0,2013-11-16 13:35:00
8:55 AM,46.4,46.4,100,30.32,3.0,Calm,Calm,-,N/A,,Overcast,0,2013-11-16 13:55:00
9:15 AM,46.4,46.4,100,30.32,4.0,Calm,Calm,-,N/A,,Overcast,0,2013-11-16 14:15:00
9:35 AM,46.4,46.4,100,30.33,5.0,Calm,Calm,-,N/A,,Overcast,0,2013-11-16 14:35:00
9:55 AM,48.2,46.4,93,30.33,5.0,Calm,Calm,-,N/A,,Overcast,0,2013-11-16 14:55:00
10:15 AM,48.2,46.4,93,30.33,4.0,Calm,Calm,-,N/A,,Overcast,0,2013-11-16 15:15:00
10:35 AM,50.0,48.2,94,30.33,4.0,Calm,Calm,-,N/A,,Overcast,0,2013-11-16 15:35:00
10:55 AM,50.0,48.2,94,30.33,4.0,Calm,Calm,-,N/A,,Overcast,0,2013-11-16 15:55:00
11:15 AM,50.0,50.0,100,30.34,3.0,Calm,Calm,-,N/A,,Overcast,0,2013-11-16 16:15:00
11:35 AM,50.0,50.0,100,30.33,4.0,Calm,Calm,-,N/A,,Overcast,0,2013-11-16 16:35:00
11:55 AM,50.0,50.0,100,30.32,3.0,ESE,3.5,-,N/A,,Overcast,120,2013-11-16 16:55:00
12:15 PM,51.8,50.0,94,30.32,3.0,Calm,Calm,-,N/A,,Overcast,0,2013-11-16 17:15:00
12:35 PM,51.8,50.0,94,30.31,4.0,Calm,Calm,-,N/A,,Overcast,0,2013-11-16 17:35:00
12:55 PM,51.8,50.0,94,30.31,4.0,Calm,Calm,-,N/A,,Overcast,0,2013-11-16 17:55:00
1:15 PM,51.8,50.0,94,30.30,4.0,Calm,Calm,-,N/A,,Overcast,0,2013-11-16 18:15:00
1:35 PM,51.8,50.0,94,30.30,5.0,Calm,Calm,-,N/A,,Overcast,0,2013-11-16 18:35:00
1:55 PM,53.6,50.0,88,30.29,7.0,Calm,Calm,-,N/A,,Overcast,0,2013-11-16 18:55:00
2:15 PM,53.6,50.0,88,30.28,7.0,Calm,Calm,-,N/A,,Overcast,0,2013-11-16 19:15:00
2:35 PM,53.6,50.0,88,30.27,7.0,Calm,Calm,-,N/A,,Overcast,0,2013-11-16 19:35:00
2:55 PM,53.6,50.0,88,30.27,7.0,Calm,Calm,-,N/A,,Overcast,0,2013-11-16 19:55:00
3:15 PM,53.6,51.8,94,30.26,7.0,Calm,Calm,-,N/A,,Overcast,0,2013-11-16 20:15:00
3:35 PM,53.6,50.0,88,30.27,10.0,Calm,Calm,-,N/A,,Overcast,0,2013-11-16 20:35:00
3:55 PM,53.6,50.0,88,30.28,10.0,Calm,Calm,-,N/A,,Overcast,0,2013-11-16 20:55:00
4:15 PM,53.6,50.0,88,30.27,7.0,ESE,3.5,-,N/A,,Overcast,110,2013-11-16 21:15:00
4:35 PM,53.6,50.0,88,30.27,7.0,SE,3.5,-,N/A,,Overcast,140,2013-11-16 21:35:00
4:55 PM,53.6,51.8,94,30.27,5.0,Calm,Calm,-,N/A,,Overcast,0,2013-11-16 21:55:00
5:15 PM,53.6,50.0,88,30.27,7.0,Calm,Calm,-,N/A,,Overcast,0,2013-11-16 22:15:00
5:35 PM,51.8,50.0,94,30.28,7.0,Calm,Calm,-,N/A,,Overcast,0,2013-11-16 22:35:00
5:55 PM,51.8,51.8,100,30.29,7.0,Calm,Calm,-,N/A,,Overcast,0,2013-11-16 22:55:00
7:54 PM,51.8,51.8,100,30.28,5.0,NNE,3.5,-,N/A,,Overcast,20,2013-11-17 00:54:00
7:55 PM,51.8,50.0,94,30.28,5.0,NNE,3.5,-,N/A,,Mostly Cloudy,20,2013-11-17 00:55:00
8:15 PM,50.0,50.0,100,30.29,4.0,Calm,Calm,-,N/A,,Mostly Cloudy,0,2013-11-17 01:15:00
8:35 PM,50.0,50.0,100,30.30,2.5,Calm,Calm,-,N/A,,Overcast,0,2013-11-17 01:35:00
8:55 PM,50.0,50.0,100,30.30,2.5,Calm,Calm,-,N/A,,Overcast,0,2013-11-17 01:55:00
9:15 PM,50.0,50.0,100,30.30,3.0,Calm,Calm,-,N/A,,Overcast,0,2013-11-17 02:15:00
9:35 PM,50.0,50.0,100,30.29,3.0,Calm,Calm,-,N/A,,Overcast,0,2013-11-17 02:35:00
9:55 PM,50.0,50.0,100,30.29,3.0,Calm,Calm,-,N/A,,Overcast,0,2013-11-17 02:55:00
10:15 PM,50.0,50.0,100,30.29,4.0,Calm,Calm,-,N/A,,Overcast,0,2013-11-17 03:15:00
10:35 PM,50.0,50.0,100,30.29,4.0,Calm,Calm,-,N/A,,Overcast,0,2013-11-17 03:35:00
10:55 PM,50.0,50.0,100,30.28,5.0,Calm,Calm,-,N/A,,Overcast,0,2013-11-17 03:55:00
11:15 PM,50.0,50.0,100,30.29,4.0,ESE,3.5,-,N/A,,Overcast,110,2013-11-17 04:15:00
11:35 PM,50.0,50.0,100,30.28,3.0,Calm,Calm,-,N/A,,Overcast,0,2013-11-17 04:35:00
11:55 PM,50.0,50.0,100,30.28,3.0,Calm,Calm,-,N/A,,Overcast,0,2013-11-17 04:55:00